Time,TemperatureF,DewpointF,PressureIn,WindDirection,WindDirectionDegrees,WindSpeedMPH,WindSpeedGustMPH,Humidity,HourlyPrecipIn,Conditions,Clouds,dailyrainin,SoftwareType,DateUTC
2013-04-07 00:02:00,53.0,42.0,29.78,WNW,293,0.0,0.0,65,0.00,,,0.00,,2013-04-07 05:02:00,
2013-04-07 00:12:00,53.0,42.0,29.78,WNW,293,0.0,0.0,65,0.00,,,0.00,,2013-04-07 05:12:00,
2013-04-07 00:22:00,52.0,41.0,29.78,WNW,293,0.0,0.0,66,0.00,,,0.00,,2013-04-07 05:22:00,
2013-04-07 00:33:00,52.0,41.0,29.79,WNW,293,0.0,0.0,65,0.00,,,0.00,,2013-04-07 05:33:00,
2013-04-07 00:42:00,52.0,41.0,29.79,WNW,293,0.0,0.0,65,0.00,,,0.00,,2013-04-07 05:42:00,
2013-04-07 00:52:00,51.0,40.0,29.79,WNW,293,0.0,0.0,67,0.00,,,0.00,,2013-04-07 05:52:00,
2013-04-07 01:02:00,51.0,40.0,29.79,WNW,293,0.0,0.0,66,0.00,,,0.00,,2013-04-07 06:02:00,
2013-04-07 01:12:00,51.0,40.0,29.79,WNW,293,0.0,0.0,66,0.00,,,0.00,,2013-04-07 06:12:00,
2013-04-07 01:22:00,51.0,40.0,29.79,WNW,293,0.0,0.0,65,0.00,,,0.00,,2013-04-07 06:22:00,
2013-04-07 01:32:00,51.0,41.0,29.80,WNW,293,0.0,0.0,68,0.00,,,0.00,,2013-04-07 06:32:00,
2013-04-07 01:42:00,51.0,41.0,29.80,WNW,293,0.0,0.0,68,0.00,,,0.00,,2013-04-07 06:42:00,
2013-04-07 01:52:00,51.0,40.0,29.80,WNW,293,0.0,0.0,67,0.00,,,0.00,,2013-04-07 06:52:00,
2013-04-07 02:02:00,50.0,40.0,29.80,WNW,293,0.0,0.0,69,0.00,,,0.00,,2013-04-07 07:02:00,
2013-04-07 02:12:00,50.0,40.0,29.80,WNW,293,0.0,0.0,69,0.00,,,0.00,,2013-04-07 07:12:00,
2013-04-07 02:22:00,49.0,40.0,29.80,WNW,293,0.0,0.0,70,0.00,,,0.00,,2013-04-07 07:22:00,
2013-04-07 02:32:00,48.0,39.0,29.80,WNW,293,0.0,0.0,72,0.00,,,0.00,,2013-04-07 07:32:00,
2013-04-07 02:42:00,48.0,39.0,29.80,WNW,293,0.0,0.0,72,0.00,,,0.00,,2013-04-07 07:42:00,
2013-04-07 02:52:00,48.0,40.0,29.81,WNW,293,0.0,0.0,74,0.00,,,0.00,,2013-04-07 07:52:00,
2013-04-07 03:02:00,47.0,39.0,29.80,WNW,293,0.0,0.0,75,0.00,,,0.00,,2013-04-07 08:02:00,
2013-04-07 03:12:00,47.0,39.0,29.80,WNW,293,0.0,0.0,75,0.00,,,0.00,,2013-04-07 08:12:00,
2013-04-07 03:22:00,47.0,40.0,29.80,WNW,293,0.0,0.0,76,0.00,,,0.00,,2013-04-07 08:22:00,
2013-04-07 03:32:00,46.0,39.0,29.80,WNW,293,0.0,0.0,77,0.00,,,0.00,,2013-04-07 08:32:00,
2013-04-07 03:42:00,46.0,39.0,29.80,WNW,293,0.0,0.0,77,0.00,,,0.00,,2013-04-07 08:42:00,
2013-04-07 03:53:00,45.0,39.0,29.80,WNW,293,0.0,0.0,78,0.00,,,0.00,,2013-04-07 08:53:00,
2013-04-07 04:02:00,45.0,39.0,29.80,WNW,293,0.0,0.0,79,0.00,,,0.00,,2013-04-07 09:02:00,
2013-04-07 04:12:00,45.0,39.0,29.80,WNW,293,0.0,0.0,79,0.00,,,0.00,,2013-04-07 09:12:00,
2013-04-07 04:22:00,44.0,38.0,29.80,WNW,293,0.0,0.0,80,0.00,,,0.00,,2013-04-07 09:22:00,
2013-04-07 04:33:00,44.0,38.0,29.80,WNW,293,0.0,0.0,80,0.00,,,0.00,,2013-04-07 09:33:00,
2013-04-07 04:43:00,44.0,38.0,29.80,WNW,293,0.0,0.0,80,0.00,,,0.00,,2013-04-07 09:43:00,
2013-04-07 04:53:00,44.0,39.0,29.80,WNW,293,0.0,0.0,81,0.00,,,0.00,,2013-04-07 09:53:00,
2013-04-07 05:03:00,44.0,39.0,29.80,WNW,293,0.0,0.0,82,0.00,,,0.00,,2013-04-07 10:03:00,
2013-04-07 05:13:00,44.0,39.0,29.80,WNW,293,0.0,0.0,82,0.00,,,0.00,,2013-04-07 10:13:00,
2013-04-07 05:22:00,44.0,39.0,29.80,WNW,293,0.0,0.0,82,0.00,,,0.00,,2013-04-07 10:22:00,
2013-04-07 05:33:00,44.0,39.0,29.80,WNW,293,0.0,0.0,82,0.00,,,0.00,,2013-04-07 10:33:00,
2013-04-07 05:42:00,44.0,39.0,29.80,WNW,293,0.0,0.0,82,0.00,,,0.00,,2013-04-07 10:42:00,
2013-04-07 05:54:00,43.0,38.0,29.80,WNW,293,0.0,0.0,81,0.00,,,0.00,,2013-04-07 10:54:00,
2013-04-07 06:02:00,44.0,39.0,29.80,WNW,293,0.0,0.0,82,0.00,,,0.00,,2013-04-07 11:02:00,
2013-04-07 06:12:00,44.0,39.0,29.80,WNW,293,0.0,0.0,82,0.00,,,0.00,,2013-04-07 11:12:00,
2013-04-07 06:22:00,44.0,39.0,29.80,WNW,293,0.0,0.0,82,0.00,,,0.00,,2013-04-07 11:22:00,
2013-04-07 06:32:00,44.0,39.0,29.81,WNW,293,0.0,0.0,81,0.00,,,0.00,,2013-04-07 11:32:00,
2013-04-07 06:42:00,44.0,39.0,29.81,WNW,293,0.0,0.0,81,0.00,,,0.00,,2013-04-07 11:42:00,
2013-04-07 06:53:00,43.0,38.0,29.82,WNW,293,0.0,0.0,82,0.00,,,0.00,,2013-04-07 11:53:00,
2013-04-07 07:02:00,43.0,38.0,29.82,WNW,293,0.0,0.0,82,0.00,,,0.00,,2013-04-07 12:02:00,
2013-04-07 07:12:00,43.0,38.0,29.82,WNW,293,0.0,0.0,82,0.00,,,0.00,,2013-04-07 12:12:00,
2013-04-07 07:22:00,44.0,39.0,29.82,WNW,293,0.0,3.0,83,0.00,,,0.00,,2013-04-07 12:22:00,
2013-04-07 07:33:00,45.0,39.0,29.83,WNW,295,0.0,2.0,80,0.00,,,0.00,,2013-04-07 12:33:00,
2013-04-07 07:42:00,45.0,39.0,29.83,WNW,295,0.0,2.0,80,0.00,,,0.00,,2013-04-07 12:42:00,
2013-04-07 07:53:00,45.0,39.0,29.84,WNW,295,0.0,0.0,80,0.00,,,0.00,,2013-04-07 12:53:00,
2013-04-07 08:03:00,45.0,39.0,29.85,WNW,295,0.0,0.0,80,0.00,,,0.00,,2013-04-07 13:03:00,
2013-04-07 08:13:00,45.0,39.0,29.85,WNW,295,0.0,0.0,80,0.00,,,0.00,,2013-04-07 13:13:00,
2013-04-07 08:22:00,47.0,40.0,29.85,WNW,295,0.0,2.0,77,0.00,,,0.00,,2013-04-07 13:22:00,
2013-04-07 08:32:00,49.0,41.0,29.85,WNW,295,0.0,0.0,74,0.00,,,0.00,,2013-04-07 13:32:00,
2013-04-07 08:42:00,49.0,41.0,29.85,WNW,295,0.0,0.0,74,0.00,,,0.00,,2013-04-07 13:42:00,
2013-04-07 08:53:00,50.0,40.0,29.85,SE,134,1.0,4.0,69,0.00,,,0.00,,2013-04-07 13:53:00,
2013-04-07 09:02:00,53.0,41.0,29.85,ESE,122,1.0,4.0,63,0.00,,,0.00,,2013-04-07 14:02:00,
2013-04-07 09:12:00,53.0,41.0,29.85,ESE,122,1.0,4.0,63,0.00,,,0.00,,2013-04-07 14:12:00,
2013-04-07 09:23:00,54.0,40.0,29.85,ESE,113,0.0,4.0,60,0.00,,,0.00,,2013-04-07 14:23:00,
2013-04-07 09:32:00,55.0,41.0,29.85,ESE,107,0.0,2.0,59,0.00,,,0.00,,2013-04-07 14:32:00,
2013-04-07 09:43:00,55.0,41.0,29.85,ESE,107,0.0,2.0,59,0.00,,,0.00,,2013-04-07 14:43:00,
2013-04-07 09:54:00,55.0,41.0,29.85,ESE,107,0.0,4.0,60,0.00,,,0.00,,2013-04-07 14:54:00,
2013-04-07 10:02:00,56.0,43.0,29.85,East,87,0.0,3.0,62,0.00,,,0.00,,2013-04-07 15:02:00,
2013-04-07 10:12:00,57.0,43.0,29.85,East,87,0.0,3.0,60,0.00,,,0.00,,2013-04-07 15:12:00,
2013-04-07 10:22:00,57.0,43.0,29.85,East,87,0.0,3.0,60,0.00,,,0.00,,2013-04-07 15:22:00,
2013-04-07 10:33:00,57.0,42.0,29.85,East,91,1.0,4.0,58,0.00,,,0.00,,2013-04-07 15:33:00,
2013-04-07 10:44:00,57.0,42.0,29.85,East,91,1.0,4.0,58,0.00,,,0.00,,2013-04-07 15:44:00,
2013-04-07 10:55:00,58.0,43.0,29.85,East,91,1.0,4.0,58,0.00,,,0.00,,2013-04-07 15:55:00,
2013-04-07 11:03:00,59.0,43.0,29.85,East,91,0.0,4.0,56,0.00,,,0.00,,2013-04-07 16:03:00,
2013-04-07 11:13:00,59.0,43.0,29.85,East,91,0.0,4.0,56,0.00,,,0.00,,2013-04-07 16:13:00,
2013-04-07 11:24:00,60.0,43.0,29.85,East,91,0.0,1.0,54,0.00,,,0.00,,2013-04-07 16:24:00,
2013-04-07 11:33:00,62.0,45.0,29.85,East,91,0.0,1.0,53,0.00,,,0.00,,2013-04-07 16:33:00,
2013-04-07 11:42:00,62.0,45.0,29.85,East,91,0.0,1.0,53,0.00,,,0.00,,2013-04-07 16:42:00,
2013-04-07 11:54:00,63.0,45.0,29.85,East,91,0.0,1.0,51,0.00,,,0.00,,2013-04-07 16:54:00,
2013-04-07 12:03:00,65.0,44.0,29.85,SSE,165,3.0,7.0,46,0.00,,,0.00,,2013-04-07 17:03:00,
2013-04-07 12:13:00,65.0,44.0,29.85,SSE,165,3.0,7.0,46,0.00,,,0.00,,2013-04-07 17:13:00,
2013-04-07 12:23:00,66.0,43.0,29.85,SE,137,0.0,4.0,44,0.00,,,0.00,,2013-04-07 17:23:00,
2013-04-07 12:33:00,67.0,44.0,29.84,SE,141,1.0,8.0,43,0.00,,,0.00,,2013-04-07 17:33:00,
2013-04-07 12:43:00,67.0,44.0,29.84,SE,141,1.0,8.0,43,0.00,,,0.00,,2013-04-07 17:43:00,
2013-04-07 12:54:00,68.0,43.0,29.83,SE,127,2.0,7.0,41,0.00,,,0.00,,2013-04-07 17:54:00,
2013-04-07 13:02:00,69.0,44.0,29.83,ESE,123,1.0,12.0,40,0.00,,,0.00,,2013-04-07 18:02:00,
2013-04-07 13:13:00,69.0,44.0,29.83,ESE,123,1.0,12.0,40,0.00,,,0.00,,2013-04-07 18:13:00,
2013-04-07 13:23:00,70.0,44.0,29.82,SE,133,0.0,11.0,39,0.00,,,0.00,,2013-04-07 18:23:00,
2013-04-07 13:32:00,71.0,44.0,29.81,ESE,111,0.0,5.0,38,0.00,,,0.00,,2013-04-07 18:32:00,
2013-04-07 13:43:00,71.0,44.0,29.81,ESE,111,0.0,5.0,38,0.00,,,0.00,,2013-04-07 18:43:00,
2013-04-07 13:53:00,72.0,43.0,29.80,SSE,154,1.0,7.0,35,0.00,,,0.00,,2013-04-07 18:53:00,
2013-04-07 14:02:00,74.0,42.0,29.80,ESE,117,0.0,6.0,32,0.00,,,0.00,,2013-04-07 19:02:00,
2013-04-07 14:12:00,74.0,42.0,29.80,ESE,117,0.0,6.0,32,0.00,,,0.00,,2013-04-07 19:12:00,
2013-04-07 14:22:00,75.0,41.0,29.79,SE,126,4.0,10.0,30,0.00,,,0.00,,2013-04-07 19:22:00,
2013-04-07 14:32:00,74.0,39.0,29.78,SW,222,3.0,12.0,28,0.00,,,0.00,,2013-04-07 19:32:00,
2013-04-07 14:42:00,74.0,39.0,29.78,SW,222,3.0,12.0,28,0.00,,,0.00,,2013-04-07 19:42:00,
2013-04-07 14:55:00,74.0,41.0,29.78,East,79,4.0,12.0,30,0.00,,,0.00,,2013-04-07 19:55:00,
2013-04-07 15:02:00,74.0,39.0,29.77,SSW,193,4.0,11.0,28,0.00,,,0.00,,2013-04-07 20:02:00,
2013-04-07 15:13:00,74.0,39.0,29.77,SSW,193,4.0,11.0,28,0.00,,,0.00,,2013-04-07 20:13:00,
2013-04-07 15:22:00,73.0,38.0,29.76,SSE,167,5.0,11.0,28,0.00,,,0.00,,2013-04-07 20:22:00,
2013-04-07 15:32:00,72.0,38.0,29.76,East,96,2.0,14.0,29,0.00,,,0.00,,2013-04-07 20:32:00,
2013-04-07 15:43:00,72.0,38.0,29.76,East,96,2.0,14.0,29,0.00,,,0.00,,2013-04-07 20:43:00,
2013-04-07 15:53:00,72.0,39.0,29.75,SE,132,3.0,9.0,30,0.00,,,0.00,,2013-04-07 20:53:00,
2013-04-07 16:03:00,72.0,40.0,29.75,SE,146,2.0,12.0,31,0.00,,,0.00,,2013-04-07 21:03:00,
2013-04-07 16:13:00,72.0,40.0,29.75,SE,146,2.0,12.0,31,0.00,,,0.00,,2013-04-07 21:13:00,
2013-04-07 16:22:00,72.0,40.0,29.74,SE,143,1.0,15.0,31,0.00,,,0.00,,2013-04-07 21:22:00,
2013-04-07 16:33:00,72.0,41.0,29.74,ESE,114,1.0,9.0,32,0.00,,,0.00,,2013-04-07 21:33:00,
2013-04-07 16:43:00,72.0,41.0,29.74,ESE,114,1.0,9.0,32,0.00,,,0.00,,2013-04-07 21:43:00,
2013-04-07 16:55:00,72.0,41.0,29.73,SSE,160,1.0,15.0,32,0.00,,,0.00,,2013-04-07 21:55:00,
2013-04-07 17:03:00,72.0,42.0,29.72,ESE,105,3.0,11.0,34,0.00,,,0.00,,2013-04-07 22:03:00,
2013-04-07 17:13:00,72.0,42.0,29.72,ESE,105,3.0,11.0,34,0.00,,,0.00,,2013-04-07 22:13:00,
2013-04-07 17:23:00,71.0,42.0,29.72,East,99,4.0,11.0,35,0.00,,,0.00,,2013-04-07 22:23:00,
2013-04-07 17:33:00,72.0,44.0,29.71,East,84,1.0,6.0,36,0.00,,,0.00,,2013-04-07 22:33:00,
2013-04-07 17:43:00,72.0,44.0,29.71,East,84,1.0,6.0,36,0.00,,,0.00,,2013-04-07 22:43:00,
2013-04-07 17:53:00,72.0,44.0,29.70,East,89,1.0,10.0,37,0.00,,,0.00,,2013-04-07 22:53:00,
2013-04-07 18:03:00,72.0,45.0,29.70,ESE,120,2.0,10.0,38,0.00,,,0.00,,2013-04-07 23:03:00,
2013-04-07 18:13:00,72.0,45.0,29.70,ESE,120,2.0,10.0,38,0.00,,,0.00,,2013-04-07 23:13:00,
2013-04-07 18:22:00,72.0,43.0,29.69,SE,127,2.0,13.0,35,0.00,,,0.00,,2013-04-07 23:22:00,
2013-04-07 18:32:00,72.0,42.0,29.68,South,179,2.0,17.0,34,0.00,,,0.00,,2013-04-07 23:32:00,
2013-04-07 18:42:00,72.0,42.0,29.68,South,179,2.0,17.0,34,0.00,,,0.00,,2013-04-07 23:42:00,
2013-04-07 18:52:00,73.0,44.0,29.68,ESE,104,4.0,14.0,35,0.00,,,0.00,,2013-04-07 23:52:00,
2013-04-07 19:02:00,72.0,43.0,29.66,East,95,8.0,13.0,35,0.00,,,0.00,,2013-04-08 00:02:00,
2013-04-07 19:12:00,72.0,43.0,29.66,East,95,8.0,13.0,35,0.00,,,0.00,,2013-04-08 00:12:00,
2013-04-07 19:22:00,71.0,43.0,29.66,East,94,2.0,7.0,36,0.00,,,0.00,,2013-04-08 00:22:00,
2013-04-07 19:32:00,70.0,43.0,29.66,ESE,103,0.0,9.0,38,0.00,,,0.00,,2013-04-08 00:32:00,
2013-04-07 19:42:00,70.0,43.0,29.66,ESE,103,0.0,9.0,38,0.00,,,0.00,,2013-04-08 00:42:00,
2013-04-07 19:53:00,69.0,44.0,29.66,ESE,105,2.0,9.0,41,0.00,,,0.00,,2013-04-08 00:53:00,
2013-04-07 20:02:00,69.0,47.0,29.67,SSE,151,1.0,11.0,46,0.00,,,0.00,,2013-04-08 01:02:00,
2013-04-07 20:12:00,69.0,47.0,29.67,SSE,151,1.0,11.0,46,0.00,,,0.00,,2013-04-08 01:12:00,
2013-04-07 20:22:00,68.0,51.0,29.66,SSE,163,1.0,5.0,54,0.00,,,0.00,,2013-04-08 01:22:00,
2013-04-07 20:33:00,67.0,48.0,29.67,SSE,154,1.0,4.0,51,0.00,,,0.00,,2013-04-08 01:33:00,
2013-04-07 20:43:00,67.0,48.0,29.67,SSE,154,1.0,4.0,51,0.00,,,0.00,,2013-04-08 01:43:00,
2013-04-07 20:55:00,67.0,49.0,29.66,ESE,108,1.0,7.0,53,0.00,,,0.00,,2013-04-08 01:55:00,
2013-04-07 21:02:00,67.0,49.0,29.66,ESE,117,4.0,18.0,53,0.00,,,0.00,,2013-04-08 02:02:00,
2013-04-07 21:12:00,67.0,49.0,29.66,ESE,117,4.0,18.0,53,0.00,,,0.00,,2013-04-08 02:12:00,
2013-04-07 21:22:00,65.0,51.0,29.66,ESE,115,3.0,13.0,60,0.00,,,0.00,,2013-04-08 02:22:00,
2013-04-07 21:33:00,63.0,51.0,29.67,South,172,3.0,11.0,65,0.01,,,0.01,,2013-04-08 02:33:00,
2013-04-07 21:45:00,63.0,51.0,29.67,South,172,3.0,11.0,65,0.01,,,0.01,,2013-04-08 02:45:00,
2013-04-07 21:54:00,62.0,52.0,29.69,SSE,148,3.0,11.0,70,0.01,,,0.01,,2013-04-08 02:54:00,
2013-04-07 22:06:00,59.0,52.0,29.69,SSE,160,0.0,10.0,78,0.03,,,0.03,,2013-04-08 03:06:00,
2013-04-07 22:14:00,59.0,52.0,29.69,SSE,160,0.0,10.0,78,0.03,,,0.03,,2013-04-08 03:14:00,
2013-04-07 22:24:00,59.0,53.0,29.70,ESE,113,1.0,7.0,81,0.04,,,0.04,,2013-04-08 03:24:00,
2013-04-07 22:33:00,58.0,53.0,29.67,SE,145,3.0,12.0,84,0.04,,,0.05,,2013-04-08 03:33:00,
2013-04-07 22:47:00,58.0,53.0,29.67,SE,145,3.0,12.0,84,0.04,,,0.05,,2013-04-08 03:47:00,
2013-04-07 23:03:00,57.0,53.0,29.70,NNW,340,5.0,7.0,88,0.03,,,0.06,,2013-04-08 04:03:00,
2013-04-07 23:12:00,57.0,53.0,29.70,NNW,340,5.0,7.0,88,0.03,,,0.06,,2013-04-08 04:12:00,
2013-04-07 23:23:00,56.0,53.0,29.70,NW,319,1.0,10.0,90,0.03,,,0.07,,2013-04-08 04:23:00,
2013-04-07 23:33:00,55.0,52.0,29.69,WNW,283,4.0,11.0,90,0.03,,,0.08,,2013-04-08 04:33:00,
2013-04-07 23:44:00,55.0,52.0,29.69,WNW,283,4.0,11.0,90,0.03,,,0.08,,2013-04-08 04:44:00,
2013-04-07 23:53:00,54.0,52.0,29.70,ENE,58,0.0,4.0,92,0.05,,,0.10,,2013-04-08 04:53:00,